User: anonymous   Login
Location: Forst
(46.9333°N, 15.4333°E)
Time: 09:10:01
(UTC+00:00)
Language:

FENGYUN 1C DEB - Orbit

View from above orbital plane
View from above orbital plane
View from above satellite
View from above satellite

Ground track
Ground track

The orbit data is extracted from the following two-line orbital elements,

1 30981U 99025BBX 21164.26608239  .00000958  00000-0  54038-3 0  9991
2 30981  98.4336 177.3236 0138249 110.2399 251.3697 14.07686875490881
Epoch (UTC): 13 June 2021 06:23:09
Eccentricity: 0.0138249
inclination: 98.4336°
perigee height: 767 km
apogee height: 967 km
right ascension of ascending node: 177.3236°
argument of perigee: 110.2399°
revolutions per day: 14.07686875
mean anomaly at epoch: 251.3697°
orbit number at epoch: 49088

The dashed part of the orbit path shows where the satellite is in the earth's shadow,  

DLR